AirNav   Everest Fuels
 
 908 users online  

79PN Geisinger Rooftop Heliport
Danville, Pennsylvania, USA

GOING TO DANVILLE?


FAA INFORMATION EFFECTIVE 31 DECEMBER 2020

Location

FAA Identifier: 79PN
Lat/Long: 40-58-04.4076N 076-36-20.5956W
40-58.073460N 076-36.343260W
40.9678910,-76.6057210
(estimated)
Elevation: 673.9 ft. / 205 m (estimated)
Variation: 12W (2005)
Time zone: UTC -5 (UTC -4 during Daylight Saving Time)
Zip code: 17821

Heliport Operations

Heliport use: Private use. Permission required prior to landing
Activation date: 02/1982
Control tower: no
ARTCC: NEW YORK CENTER
FSS: WILLIAMSPORT FLIGHT SERVICE STATION
NOTAMs facility: FDC (NOTAM-D service not available)
Attendance: CONTINUOUS
Wind indicator: lighted
Segmented circle: no

Heliport Communications

UNICOM: 123.05
WX AWOS-3: 118.075 (570-271-8192)
WILKES-BARRE APPROACH: 126.3
WILKES-BARRE DEPARTURE: 126.3
HERUB DP: 120.95
MUDDR DP: 126.3
WX AWOS-3 at N79 (8 nm S): 119.175 (570-672-0389)
WX ASOS at SEG (15 nm SW): 123.975 (570-374-4099)
WX AWOS-3 at ZER (19 nm SE): 127.575 (570-544-2778)

Nearby radio navigation aids

VOR radial/distance  VOR name  Freq  Var
MIPr150/4.3MILTON VORTAC109.2009W
SEGr058/16.5SELINSGROVE VOR/DME110.4008W
FQMr170/23.5WILLIAMSPORT VOR/DME114.4009W
RAVr010/24.9RAVINE VORTAC114.6011W

 
NDB name  Hdg/Dist  Freq  Var  ID
BELLGROVE006/32.032810WBZJ -... --.. .---

Heliport Services

Runway Information

Helipad H1

Dimensions: 60 x 50 ft. / 18 x 15 m
Surface: ROOF/TOP, in fair condition
ALUMINUM SURFACE, ROOFTOP FACILITY.
Latitude: 40-58.073460N
Longitude: 076-36.343260W
Elevation: 673.9 ft.
Traffic pattern: leftleft
Markings: none, in fair condition

Heliport Ownership and Management from official FAA records

Ownership: Privately-owned
Owner: GEISINGER MEDICAL CENTER
100 NORTH ACADEMY DRIVE
DANVILLE, PA 17822
Phone 570-271-5120
Manager: RICHARD SMITH
GEISINGER MEDICAL CENTER, 100 NORTH ACADEMY DRIVE
DANVILLE, PA 17822-2005
Phone 570-271-5124

Additional Remarks

FOR CD CTC WILKES-BARRE APCH AT 570-655-2084.

Instrument Procedures

There are no published instrument procedures at 79PN.

Some nearby airports with instrument procedures:

8N8 - Danville Airport (2 nm SW)
N13 - Bloomsburg Municipal Airport (8 nm E)
N79 - Northumberland County Airport (8 nm S)
KSEG - Penn Valley Airport (15 nm SW)
KZER - Schuylkill County/Joe Zerbey Airport (19 nm SE)
 
Loc | Ops | Rwys | IFR | FBO | Links
Com | Nav | Svcs | Stats | Notes
Area around 79PN (Geisinger Rooftop Heliport)
 
Road maps at: MapQuest Bing Google
 
Aerial photo
WARNING: Photo may not be current or correct
Aerial photo of 79PN (Geisinger Rooftop Heliport)
Taken in 2008

Do you have a better or more recent aerial photo of Geisinger Rooftop Heliport that you would like to share? If so, please send us your photo.

 
Sectional chart

 
Airport distance calculator
Flying to Geisinger Rooftop Heliport? Find the distance to fly.

From to 79PN

Sunrise and sunset
Times for 17-Jan-2021
 Local
(UTC-5)
 Zulu
(UTC)
Morning civil twilight06:5911:59
Sunrise07:2912:29
Sunset17:0422:04
Evening civil twilight17:3422:34

Current date and time
Zulu (UTC)  18-Jan-2021 03:13:23
Local (UTC-5)  17-Jan-2021 22:13:23
 
METAR
KSEG 
15nm SW 
180253Z AUTO 00000KT 10SM BKN050 OVC090 02/M01 A2972 RMK AO2 SLP068 T00221011 50000
KIPT 
22nm NW 
180254Z 29006KT 10SM BKN045 OVC055 02/M01 A2970 RMK AO2 SLP060 T00221011 50002
KHZL 
28nm E 
180255Z AUTO 00000KT 5SM -SN SCT013 BKN022 OVC037 00/M01 A2970 RMK AO2
TAF
KIPT 
22nm NW 
172116Z 1721/1818 26007KT P6SM OVC045 FM180200 26006KT P6SM VCSH SCT025 OVC070 FM180800 25004KT P6SM SCT025 OVC120
NOTAMs
Click for the latest NOTAMs
NOTAMs are issued by the DoD/FAA and will open in a separate window not controlled by AirNav.

 

 
 

Would you like to see your business listed on this page?

 If your business provides an interesting product or service to pilots, flight crews, aircraft, or users of the Geisinger Rooftop Heliport, you should consider listing it here.  To start the listing process, click on the button below
 
Add a business
 

Other Pages about Geisinger Rooftop Heliport

Update a link
 
Copyright © AirNav, LLC. All rights reserved. Privacy Policy  Contact